Location: Bald Rock
(37.3738°N, 119.9354°W)
Time: 21:34:46
(UTC+00:00)

Cosmos 2322 Rocket - Pass Details

Date: 08 September 2024
Orbit: 832 x 850 km, 71.0° (Epoch: 12 October)

Event Time Altitude Azimuth Distance (km) Brightness Sun altitude
Rises 12:36:18 0° 333° (NNW) 3,414 5.3 -12.5°
Reaches altitude 10° 12:38:48 10° 330° (NNW) 2,473 4.5 -12.0°
Maximum altitude 12:44:21 58° 252° (WSW) 973 2.2 -11.0°
Drops below altitude 10° 12:49:51 10° 174° (S) 2,445 4.5 -9.9°
Sets 12:52:18 0° 171° (S) 3,373 5.3 -9.5°
